Date,TemperatureHighF,TemperatureAvgF,TemperatureLowF,DewpointHighF,DewpointAvgF,DewpointLowF,HumidityHigh,HumidityAvg,HumidityLow,PressureMaxIn,PressureMinIn,WindSpeedMaxMPH,WindSpeedAvgMPH,GustSpeedMaxMPH,PrecipitationSumIn
2013-1-1,59,49,41,46,39,32,92,72,45,30.23,30.11,7,0,0,0.00
2013-1-2,62,49,40,48,40,32,89,73,44,30.15,30.05,8,1,0,0.00
2013-1-3,66,50,40,50,36,28,86,62,24,30.18,30.06,7,0,0,0.00
2013-1-4,66,52,41,44,34,22,81,54,24,30.26,30.16,5,0,0,0.00
2013-1-5,61,50,41,50,42,32,96,75,48,30.29,30.17,5,0,0,0.05
2013-1-6,55,50,44,50,45,40,99,84,66,30.20,30.03,12,2,0,0.17
2013-1-7,66,53,43,48,40,35,81,62,41,30.13,30.00,9,1,0,0.00
2013-1-8,70,54,42,52,42,35,97,68,30,30.10,30.02,5,0,0,0.00
2013-1-9,60,52,45,54,48,40,95,87,68,30.12,30.00,6,0,0,0.00
2013-1-10,57,50,42,48,35,29,92,58,37,30.14,29.94,17,4,0,0.00
2013-1-11,59,48,39,36,30,23,71,53,28,30.19,30.08,11,3,0,0.00
2013-1-12,56,46,37,37,31,25,79,56,33,30.17,30.07,10,2,0,0.00
2013-1-13,56,45,35,38,30,16,77,58,33,30.18,30.03,12,1,0,0.00
2013-1-14,54,43,33,35,29,19,84,59,39,30.36,30.13,6,1,0,0.00
2013-1-15,57,45,36,44,35,22,86,68,49,30.45,30.35,9,1,0,0.00
2013-1-16,65,50,38,45,34,27,88,60,26,30.36,30.15,6,1,0,0.00
2013-1-17,73,55,42,45,35,29,73,52,22,30.17,30.06,6,1,0,0.00
2013-1-18,75,57,44,41,31,25,59,41,17,30.14,30.05,7,1,0,0.00
2013-1-19,77,57,44,40,29,18,58,37,12,30.17,30.07,5,0,0,0.00
2013-1-20,77,58,44,41,28,17,74,36,11,30.13,30.02,6,1,0,0.00
2013-1-21,79,59,44,38,27,10,53,32,9,30.10,29.98,5,1,0,0.00
2013-1-22,77,58,47,43,30,21,52,37,14,30.07,30.00,6,0,0,0.00
2013-1-23,68,58,52,49,38,27,86,51,26,30.08,29.98,9,1,0,0.04
2013-1-24,59,56,55,57,55,49,99,96,80,30.14,30.05,7,1,0,0.90
2013-1-25,61,57,55,60,57,55,100,98,93,30.11,29.96,5,0,0,0.28
2013-1-26,63,56,50,60,55,50,100,96,80,29.98,29.88,16,1,0,0.06
2013-1-27,63,55,50,52,44,30,100,70,31,30.04,29.95,14,4,0,0.00
2013-1-28,63,55,44,41,34,28,71,47,29,30.19,30.08,10,2,0,0.00
2013-1-29,63,52,41,46,39,32,93,63,38,30.21,30.12,11,1,0,0.00
2013-1-30,62,51,42,52,44,40,97,80,49,30.32,30.20,5,1,0,0.00
2013-1-31,71,53,43,53,46,41,99,79,43,30.25,30.10,6,1,0,0.00
2013-2-1,69,55,46,57,50,44,98,85,46,30.17,30.10,7,1,0,0.00
2013-2-2,66,57,50,58,52,49,98,84,63,30.20,30.12,5,1,0,0.00
2013-2-3,68,56,48,56,51,46,99,83,54,30.15,29.99,9,1,0,0.00
2013-2-4,63,55,48,55,51,46,98,89,61,30.09,29.98,7,1,0,0.00
2013-2-5,57,52,47,53,50,46,98,92,81,30.09,29.98,7,0,0,0.00
2013-2-6,60,51,42,53,48,41,100,88,68,30.10,30.00,7,0,0,0.00
2013-2-7,61,51,42,51,45,39,99,81,50,30.14,29.99,11,1,0,0.00
2013-2-8,53,48,43,46,40,34,91,74,60,30.00,29.87,14,3,0,0.06
2013-2-9,60,50,40,46,38,33,85,66,39,30.08,29.95,15,3,0,0.00
2013-2-10,57,48,38,48,42,36,95,82,65,30.09,30.01,7,1,0,0.00
2013-2-11,60,50,39,50,40,29,97,72,43,30.23,30.06,9,1,0,0.00
2013-2-12,61,51,41,50,43,34,93,75,49,30.35,30.23,9,1,0,0.00
2013-2-13,63,52,40,52,46,38,98,81,54,30.26,30.12,8,1,0,0.00
2013-2-14,64,53,44,54,49,43,99,86,55,30.20,30.07,7,1,0,0.00
2013-2-15,80,60,45,49,40,27,97,54,14,30.19,30.12,5,1,0,0.00
2013-2-16,79,61,49,48,33,16,58,38,11,30.15,29.96,5,1,0,0.00
2013-2-17,66,56,47,53,48,34,95,74,38,30.00,29.89,8,1,0,0.00
2013-2-18,60,54,49,50,49,46,95,83,64,30.05,29.94,6,1,0,0.00
2013-2-19,59,51,45,49,43,35,95,75,53,29.96,29.74,18,3,0,0.18
2013-2-20,63,51,40,42,36,30,82,58,32,30.01,29.75,18,4,0,0.00
2013-2-21,60,52,40,45,38,30,84,60,38,30.10,29.97,13,2,0,0.00
2013-2-22,60,50,40,49,42,35,94,75,47,30.19,30.09,6,1,0,0.00
2013-2-23,67,54,41,51,42,25,99,67,32,30.15,29.89,14,2,0,0.00
2013-2-24,64,55,43,49,32,25,65,43,27,30.21,30.00,10,1,0,0.00
2013-2-25,62,52,41,50,41,32,91,68,38,30.22,30.05,7,1,0,0.00
2013-2-26,69,54,40,50,39,18,98,64,25,30.12,30.00,8,1,0,0.00
2013-2-27,70,55,42,46,33,24,78,48,21,30.28,30.11,7,1,0,0.00
2013-2-28,70,56,43,53,41,29,92,61,27,30.32,30.24,7,1,0,0.00
2013-3-1,83,63,47,47,35,23,86,42,12,30.30,30.15,9,1,0,0.00
2013-3-2,78,61,51,56,43,32,95,56,22,30.19,30.07,7,1,0,0.00
2013-3-3,66,59,52,56,52,44,95,79,54,30.10,29.94,11,1,0,0.00
2013-3-4,62,54,46,54,50,45,99,88,73,30.09,29.99,8,1,0,0.00
2013-3-5,58,53,50,52,49,45,98,87,78,30.12,30.02,7,1,0,0.00
2013-3-6,58,52,48,50,47,44,97,85,65,30.14,30.00,6,0,0,0.01
2013-3-7,60,52,43,53,49,41,98,88,70,30.01,29.81,9,1,0,0.50
2013-3-8,62,51,42,49,44,41,97,77,51,30.04,29.79,13,2,0,0.09
2013-3-9,69,55,46,49,40,35,83,59,32,30.20,30.03,15,2,0,0.00
2013-3-10,68,56,45,54,45,38,92,68,41,30.28,30.15,8,1,0,0.00
2013-3-11,66,55,45,55,49,44,98,83,54,30.17,30.04,7,1,0,0.00
2013-3-12,65,55,45,55,51,45,99,87,58,30.08,30.01,7,1,0,0.00
2013-3-13,65,53,42,57,50,42,100,92,70,30.11,30.03,7,1,0,0.00
2013-3-14,61,54,49,55,52,49,100,94,80,30.10,29.99,10,1,0,0.00
2013-3-15,58,54,52,55,53,51,99,96,89,30.02,29.92,7,1,0,0.00
2013-3-16,61,53,51,55,52,49,100,95,79,29.98,29.86,7,1,0,0.00
2013-3-17,66,56,50,56,53,50,100,90,67,29.99,29.90,7,1,0,0.01
2013-3-18,61,56,52,54,52,50,97,88,72,30.08,29.96,6,1,0,0.00
2013-3-19,63,55,48,56,52,48,99,90,75,30.11,30.01,8,1,0,0.00
2013-3-20,70,60,50,57,52,43,99,78,43,30.08,29.93,20,2,0,0.00
2013-3-21,77,63,49,57,49,42,87,61,42,29.94,29.76,16,3,0,0.00
2013-3-22,70,62,51,53,38,14,76,43,16,29.90,29.78,16,2,0,0.00
2013-3-23,65,56,49,55,47,16,95,73,22,30.02,29.88,7,1,0,0.00
2013-3-24,54,52,49,52,50,47,96,94,91,29.98,29.90,5,0,0,0.00
2013-3-25,64,57,51,56,53,49,97,86,73,29.98,29.89,8,1,0,0.00
2013-3-26,66,56,50,57,52,49,98,88,69,29.97,29.89,7,1,0,0.01
2013-3-27,64,56,51,55,52,50,97,88,72,30.03,29.90,10,2,0,0.01
2013-3-28,62,55,52,56,53,51,98,93,77,30.08,30.00,8,1,0,0.00
2013-3-29,62,55,52,57,54,52,99,95,81,30.11,30.02,9,1,0,0.00
2013-3-30,63,56,53,56,54,52,99,94,77,30.13,30.06,8,1,0,0.00
2013-3-31,57,54,53,55,53,53,99,98,93,30.11,30.06,7,1,0,0.35
2013-4-1,64,57,52,58,54,49,100,90,73,30.17,30.05,12,2,0,0.00
2013-4-2,66,57,49,57,53,48,99,87,68,30.08,29.98,7,1,0,0.00
2013-4-3,63,56,52,57,54,50,99,93,81,30.09,30.00,8,1,0,0.00
2013-4-4,67,58,52,58,55,52,99,89,71,30.12,29.99,13,2,0,0.00
2013-4-5,73,60,51,59,54,50,99,82,53,30.09,29.95,22,3,0,0.00
2013-4-6,74,62,53,58,53,48,97,73,49,30.08,29.95,19,4,0,0.00
2013-4-7,79,66,54,56,50,46,81,59,36,29.96,29.78,20,3,0,0.00
2013-4-8,68,58,51,49,43,40,78,58,37,29.85,29.70,30,5,0,0.00
2013-4-9,68,60,51,50,41,33,65,51,31,30.00,29.84,14,2,0,0.00
2013-4-10,78,62,49,53,44,33,83,54,20,30.10,29.95,8,1,0,0.00
2013-4-11,68,60,54,56,51,46,89,73,51,29.96,29.74,8,2,0,0.00
2013-4-12,62,55,52,55,52,49,97,89,76,29.87,29.78,9,1,0,0.00
2013-4-13,58,55,52,55,53,51,98,93,88,29.91,29.83,7,1,0,0.00
2013-4-14,60,55,47,54,52,46,97,90,74,29.88,29.81,6,1,0,0.00
2013-4-15,64,54,45,54,48,39,99,79,50,29.90,29.80,18,3,0,0.00
2013-4-16,70,56,45,48,38,10,76,53,27,30.01,29.85,18,5,0,0.00
2013-4-17,72,60,51,49,34,18,62,39,13,30.14,30.02,15,3,11,0.00
2013-4-18,72,59,47,48,37,24,80,47,22,30.21,30.11,10,1,11,0.00
2013-4-19,72,58,47,54,48,36,93,69,33,30.16,29.95,7,1,8,0.00
2013-4-20,80,62,53,57,51,41,87,68,37,29.99,29.86,9,1,10,0.00
2013-4-21,73,60,54,58,55,52,98,83,54,29.99,29.90,8,1,8,0.00
2013-4-22,65,58,54,56,54,52,98,87,71,30.01,29.88,9,1,9,0.00
2013-4-23,66,57,52,56,53,50,98,87,66,29.97,29.87,9,1,11,0.01
2013-4-24,58,56,54,56,54,52,98,94,90,29.98,29.88,5,0,7,0.02
2013-4-25,67,58,49,56,52,48,99,84,66,30.10,29.95,9,1,11,0.01
2013-4-26,68,59,51,58,54,50,97,84,57,30.15,30.08,9,1,9,0.00
2013-4-27,66,59,53,58,55,52,97,87,71,30.14,29.97,9,1,11,0.01
2013-4-28,63,56,54,57,54,53,98,93,80,29.99,29.84,7,1,9,0.00
2013-4-29,66,57,52,58,55,52,98,92,73,29.90,29.78,8,1,10,0.00
2013-4-30,63,57,52,57,55,51,99,93,76,29.88,29.81,5,0,6,0.03
2013-5-1,70,61,52,59,56,50,97,85,62,30.06,29.87,9,1,11,0.00
2013-5-2,79,64,50,60,54,43,99,76,28,30.12,30.01,10,2,12,0.01
2013-5-3,87,68,52,61,48,21,95,58,9,30.01,29.74,8,1,10,0.00
2013-5-4,70,62,56,59,56,51,96,83,64,29.81,29.72,10,1,10,0.00
2013-5-5,65,59,56,57,54,52,93,84,71,29.90,29.79,12,2,14,0.00
2013-5-6,69,62,56,59,57,55,97,84,64,29.99,29.85,8,1,10,0.08
2013-5-7,69,62,54,60,56,51,93,81,64,30.03,29.96,10,1,12,0.00
2013-5-8,68,61,52,58,54,48,98,79,60,30.08,30.03,10,2,13,0.00
2013-5-9,71,62,54,58,56,52,92,80,57,30.08,29.97,9,2,9,0.00
2013-5-10,70,62,54,60,57,53,98,84,64,30.09,29.98,9,1,11,0.00
2013-5-11,67,61,58,61,58,56,97,91,80,30.07,29.98,9,1,11,0.00
2013-5-12,81,66,59,63,60,48,99,83,35,30.04,29.89,12,2,12,0.00
2013-5-13,73,66,58,62,59,56,93,79,67,29.97,29.89,7,1,8,0.00
2013-5-14,73,63,56,59,56,54,97,79,54,29.96,29.86,10,2,16,0.01
2013-5-15,69,60,54,58,55,52,96,83,62,30.04,29.91,7,1,8,0.00
2013-5-16,66,59,52,58,55,50,98,86,71,29.98,29.87,7,1,7,0.00
2013-5-17,70,62,52,59,55,47,97,79,55,29.97,29.89,8,1,12,0.01
2013-5-18,71,62,51,59,54,46,96,78,45,30.02,29.94,8,1,10,0.00
2013-5-19,73,63,54,60,55,48,95,76,47,29.97,29.83,9,1,11,0.00
2013-5-20,75,62,52,61,57,51,99,84,46,29.95,29.85,10,1,13,0.00
2013-5-21,70,64,58,61,58,56,94,83,62,29.94,29.78,9,2,12,0.00
2013-5-22,73,62,53,57,52,39,97,72,38,29.84,29.73,11,2,14,0.00
2013-5-23,71,60,48,55,49,42,95,69,39,29.92,29.80,11,2,11,0.00
2013-5-27,72,66,64,51,50,50,64,57,47,29.87,29.83,20,7,22,0.00
2013-5-28,76,68,60,58,54,51,73,61,51,29.86,29.72,21,5,22,0.00
2013-5-29,87,73,62,57,53,49,69,51,35,29.79,29.68,23,4,23,0.00
2013-5-30,74,67,60,59,55,46,87,66,47,29.84,29.72,10,1,11,0.00
2013-5-31,70,62,54,60,56,52,97,81,57,29.91,29.79,7,1,9,0.00
2013-6-1,69,62,58,61,58,55,97,89,69,29.84,29.71,10,1,10,0.00
2013-6-2,64,61,58,60,59,58,98,93,86,29.81,29.76,8,1,8,0.01
2013-6-3,67,60,54,61,58,53,99,92,76,29.88,29.77,7,1,8,0.03
2013-6-4,66,60,54,58,56,51,97,87,74,29.96,29.86,12,2,13,0.01
2013-6-5,67,60,52,58,55,50,98,86,72,29.99,29.91,13,2,14,0.00
2013-6-6,67,60,55,59,56,54,97,88,73,29.94,29.87,11,1,12,0.00
2013-6-7,65,59,57,59,56,55,96,91,79,29.89,29.78,8,1,9,0.00
2013-6-8,66,60,57,60,58,56,98,93,81,29.89,29.76,7,1,8,0.01
2013-6-9,64,61,58,61,59,57,99,92,84,29.91,29.86,6,0,7,0.04
2013-6-10,71,64,57,62,58,55,95,83,62,29.95,29.87,9,1,15,0.00
2013-6-11,71,63,56,63,59,55,98,88,72,29.93,29.86,15,2,15,0.00
2013-6-12,70,61,57,62,59,57,98,93,76,30.02,29.91,9,1,10,0.00
2013-6-13,69,62,59,61,59,57,98,89,73,30.01,29.86,8,1,8,0.01
2013-6-14,70,62,58,62,58,56,95,87,73,29.91,29.83,9,2,11,0.00
2013-6-15,68,60,55,61,58,53,98,91,77,29.97,29.86,9,1,10,0.02
2013-6-16,68,60,54,60,57,53,98,89,75,30.03,29.92,10,1,11,0.01
2013-6-17,72,63,54,63,59,53,99,87,70,29.97,29.83,10,1,11,0.00
2013-6-18,82,68,60,64,58,50,95,71,36,29.90,29.77,17,2,18,0.00
2013-6-19,86,69,55,61,54,39,98,65,22,29.87,29.72,16,2,16,0.00
2013-6-20,78,67,57,61,57,52,94,70,43,29.83,29.76,8,1,9,0.00
2013-6-21,73,65,59,61,58,56,91,78,58,29.89,29.80,9,1,11,0.00
2013-6-22,70,63,56,61,58,54,97,84,69,29.91,29.80,8,1,10,0.00
2013-6-23,69,62,56,60,58,55,98,87,70,29.88,29.77,8,1,8,0.00
2013-6-24,70,63,58,62,60,56,97,89,73,29.93,29.79,6,1,7,0.01
2013-6-25,68,62,58,63,60,57,99,91,79,29.99,29.87,9,1,10,0.00
2013-6-26,73,66,61,64,61,59,97,84,73,29.97,29.88,7,1,8,0.00
2013-6-27,74,66,61,66,62,59,97,88,72,30.02,29.92,9,1,9,0.00
2013-6-28,74,65,58,64,61,57,98,86,68,29.97,29.85,9,1,11,0.00
2013-6-29,77,68,58,64,61,57,98,80,56,29.86,29.71,7,1,8,0.00
2013-6-30,77,69,62,66,63,60,95,82,63,29.79,29.68,7,1,8,0.00
2013-7-1,83,69,64,68,65,62,98,88,60,29.87,29.76,8,1,10,0.00
2013-7-2,75,67,64,67,64,62,99,92,74,30.00,29.84,11,1,11,0.00
2013-7-3,69,63,60,64,61,60,99,94,83,29.91,29.77,10,1,13,0.01
2013-7-4,72,64,60,65,62,60,99,93,78,29.82,29.73,7,1,9,0.00
2013-7-5,71,64,59,65,62,58,99,92,79,29.84,29.75,9,1,10,0.00
2013-7-6,71,64,59,65,61,57,97,91,77,29.83,29.74,11,1,12,0.00
2013-7-7,71,64,59,64,61,58,98,89,73,29.84,29.77,10,1,11,0.00
2013-7-8,70,64,58,63,60,57,98,88,75,29.92,29.83,14,2,14,0.01
2013-7-9,72,64,59,64,61,57,99,89,73,29.98,29.88,9,1,10,0.00
2013-7-10,70,64,59,63,61,58,98,90,75,29.97,29.89,8,1,8,0.00
2013-7-11,75,66,60,67,63,58,96,88,72,29.95,29.87,7,1,8,0.00
2013-7-12,70,63,58,63,60,57,99,93,79,29.93,29.85,9,1,11,0.01
2013-7-13,68,62,58,62,60,58,99,92,80,29.96,29.83,13,1,13,0.00
2013-7-14,74,65,59,64,61,58,99,85,66,29.93,29.77,7,2,8,0.00
2013-7-15,75,65,60,62,59,57,93,81,63,29.86,29.78,8,2,10,0.00
2013-7-16,72,64,57,62,59,55,95,85,65,29.94,29.83,9,2,11,0.00
2013-7-17,73,65,58,62,60,56,97,84,66,30.02,29.93,10,2,11,0.01
2013-7-18,72,64,55,63,59,54,98,85,65,29.96,29.83,9,2,10,0.00
2013-7-19,71,63,58,62,59,56,96,86,64,29.90,29.80,8,2,8,0.01
2013-7-20,70,62,55,63,58,54,99,89,76,29.88,29.76,7,1,9,0.00
2013-7-21,72,64,58,65,61,57,97,91,77,29.92,29.79,6,1,8,0.00
2013-7-22,72,64,60,66,62,59,99,93,81,29.97,29.88,8,1,9,0.05
2013-7-23,69,62,59,62,60,58,99,92,78,30.02,29.92,10,2,13,0.00
2013-7-24,67,61,58,61,59,57,99,92,81,29.97,29.88,9,1,10,0.00
2013-7-25,69,63,59,63,60,58,98,90,77,29.98,29.90,10,2,11,0.00
2013-7-26,70,62,59,63,59,58,97,90,75,30.08,29.96,10,2,12,0.00
2013-7-27,71,62,58,63,59,57,98,90,74,30.00,29.86,8,2,11,0.00
2013-7-28,68,61,58,61,58,56,97,91,79,29.92,29.85,9,1,9,0.00
2013-7-29,69,61,55,61,58,53,99,90,74,30.02,29.90,9,1,10,0.01
2013-7-30,69,60,54,61,57,52,98,89,71,30.13,30.01,10,1,11,0.00
2013-7-31,67,59,53,60,56,52,99,89,75,30.11,29.98,11,1,11,0.00
2013-8-1,67,61,57,61,58,56,96,89,77,30.02,29.88,7,1,9,0.00
2013-8-2,69,62,58,62,59,56,96,89,76,29.97,29.89,10,1,12,0.00
2013-8-3,68,60,55,60,58,54,98,91,77,30.00,29.92,10,1,10,0.01
2013-8-4,67,60,56,60,57,54,98,91,79,30.01,29.93,11,1,11,0.00
2013-8-5,68,61,57,60,58,56,98,91,74,30.00,29.90,7,1,9,0.00
2013-8-6,68,61,58,60,58,57,96,89,77,30.04,29.94,9,1,10,0.00
2013-8-7,69,62,56,61,59,55,98,88,74,30.07,29.94,7,2,11,0.01
2013-8-8,70,62,55,62,59,54,99,89,72,29.99,29.87,8,1,9,0.00
2013-8-9,68,63,58,61,59,56,96,87,74,29.95,29.87,10,2,10,0.00
2013-8-10,70,62,57,62,59,55,97,89,73,30.02,29.92,11,1,14,0.00
2013-8-11,68,63,59,62,60,58,97,90,75,29.98,29.88,8,1,9,0.00
2013-8-12,68,63,59,62,60,58,97,89,75,29.97,29.87,7,2,10,0.00
2013-8-13,69,62,58,63,59,56,97,92,79,29.97,29.85,12,1,12,0.01
2013-8-14,68,62,59,62,60,57,98,94,83,29.93,29.81,9,1,10,0.00
2013-8-15,68,62,58,63,60,58,99,95,83,29.94,29.87,8,1,9,0.00
2013-8-16,67,62,58,62,60,58,100,94,83,29.95,29.89,9,1,10,0.01
2013-8-17,70,63,60,62,60,59,99,92,70,29.94,29.78,7,2,10,0.00
2013-8-18,69,62,59,63,60,58,98,91,76,29.89,29.80,10,1,10,0.00
2013-8-19,70,61,57,62,59,56,100,93,77,29.95,29.85,9,1,10,0.01
2013-8-20,69,62,56,61,59,55,98,90,75,29.94,29.85,10,1,13,0.00
2013-8-21,70,62,55,61,59,54,99,89,71,29.93,29.84,11,2,11,0.01
2013-8-22,78,66,57,64,60,56,99,83,55,29.92,29.80,8,2,10,0.01
2013-8-23,74,66,60,64,61,58,95,85,64,29.84,29.72,8,2,11,0.00
2013-8-24,72,64,55,63,60,54,99,89,68,29.84,29.74,9,2,10,0.01
2013-8-25,74,65,59,64,61,58,99,88,61,29.91,29.80,9,1,9,0.00
2013-8-26,76,65,57,65,61,56,99,87,59,29.91,29.81,8,1,9,0.00
2013-8-27,71,64,59,63,61,57,98,89,76,29.83,29.76,8,1,8,0.00
2013-8-28,73,65,58,64,61,57,99,88,70,29.86,29.76,9,1,11,0.00
2013-8-29,83,68,59,66,62,57,98,81,43,29.93,29.83,9,1,12,0.00
2013-8-30,86,72,62,66,63,59,94,75,44,29.94,29.87,5,1,7,0.00
2013-8-31,84,74,67,67,63,56,86,71,41,29.95,29.85,7,1,8,0.00
2013-9-1,78,69,64,68,64,61,93,84,61,29.92,29.84,9,1,11,0.00
2013-9-2,77,68,62,68,64,60,98,88,72,29.92,29.77,8,1,9,0.00
2013-9-3,83,72,66,69,66,62,94,81,60,29.89,29.78,7,1,7,0.00
2013-9-4,80,71,63,67,64,60,94,78,56,29.91,29.81,8,1,9,0.00
2013-9-5,81,70,64,67,63,60,90,80,55,29.88,29.79,6,1,7,0.00
2013-9-6,78,67,59,66,62,58,96,84,63,29.86,29.77,8,1,9,0.00
2013-9-7,73,64,60,65,61,58,97,90,71,29.87,29.79,13,1,13,0.01
2013-9-8,70,62,58,63,60,56,99,92,80,29.84,29.74,11,1,11,0.00
2013-9-9,67,62,58,62,60,57,98,92,81,29.81,29.73,8,1,10,0.00
2013-9-10,71,63,58,62,59,56,98,88,71,29.91,29.79,8,1,9,0.01
2013-9-11,71,64,59,63,60,56,98,88,71,29.99,29.90,9,1,11,0.00
2013-9-12,74,64,57,63,60,55,99,88,61,29.93,29.80,8,1,10,0.01
2013-9-13,74,66,59,64,61,57,96,86,59,29.80,29.64,8,1,8,0.00
2013-9-14,76,66,61,65,61,59,95,84,57,29.71,29.62,9,1,9,0.00
2013-9-15,76,66,57,64,60,56,98,82,56,29.77,29.63,11,1,11,0.00
2013-9-16,74,65,57,64,60,55,98,85,64,29.83,29.72,9,2,10,0.00
2013-9-17,73,64,59,63,60,58,98,87,69,29.81,29.69,7,1,9,0.01
2013-9-18,71,64,59,63,60,57,96,88,71,29.81,29.72,8,1,9,0.00
2013-9-19,70,62,57,64,60,56,99,93,77,29.82,29.74,8,1,12,0.02
2013-9-20,65,62,55,62,60,54,99,94,86,29.88,29.80,6,0,9,0.01
2013-9-21,71,64,56,63,58,54,99,81,56,29.90,29.77,13,2,15,0.01
2013-9-22,79,68,56,57,51,39,77,55,33,29.85,29.74,16,3,17,0.00
2013-9-23,84,68,60,60,53,43,89,61,26,29.86,29.78,8,1,9,0.00
2013-9-24,77,67,58,63,58,50,91,73,50,29.92,29.80,7,1,8,0.00
2013-9-25,78,65,58,61,54,45,94,71,35,29.82,29.64,18,3,19,0.00
2013-9-26,77,65,52,56,46,38,90,55,28,29.90,29.69,17,3,18,0.00
2013-9-27,79,66,55,59,44,29,88,49,19,29.98,29.86,20,1,23,0.00
2013-9-28,80,65,54,55,44,35,88,51,20,30.01,29.95,8,1,10,0.00
2013-9-29,76,64,54,61,54,45,94,72,35,30.05,29.95,8,1,8,0.00
2013-9-30,77,65,55,63,57,49,94,76,49,29.96,29.80,6,1,7,0.00
2013-10-1,73,64,58,63,60,56,96,85,64,29.92,29.83,7,1,9,0.00
2013-10-2,69,62,56,62,58,54,97,89,79,29.95,29.87,11,1,11,0.00
2013-10-3,68,61,54,60,58,53,99,88,74,29.92,29.80,7,1,8,0.01
2013-10-4,77,63,53,62,53,41,99,73,35,30.01,29.86,8,1,12,0.01
2013-10-5,85,68,55,44,36,30,53,32,16,30.10,30.01,8,1,10,0.00
2013-10-6,88,69,56,54,38,23,82,36,11,30.06,29.94,8,1,10,0.00
2013-10-7,72,63,57,62,58,52,96,83,61,29.96,29.88,10,1,11,0.01
2013-10-8,68,61,56,59,56,52,97,86,70,29.91,29.80,8,1,9,0.01
2013-10-9,66,58,51,54,50,42,87,74,47,29.80,29.66,16,2,20,0.01
2013-10-10,66,56,47,56,49,41,93,78,58,30.01,29.77,7,1,8,0.00
2013-10-11,67,57,49,57,53,48,99,87,70,30.04,29.94,10,1,12,0.01
2013-10-12,67,60,53,61,56,52,99,88,71,29.96,29.89,11,1,11,0.01
2013-10-13,67,60,54,58,55,51,96,85,69,30.00,29.90,8,1,10,0.01
2013-10-14,73,62,51,60,54,44,99,78,36,30.02,29.90,9,1,10,0.01
2013-10-15,86,68,54,58,43,32,81,45,17,29.94,29.86,7,1,9,0.00
2013-10-16,82,68,55,49,40,29,70,40,19,30.04,29.93,6,1,7,0.00
2013-10-17,76,63,54,63,54,37,91,74,38,30.01,29.90,7,1,9,0.00
2013-10-18,76,63,55,62,55,45,96,76,36,30.00,29.92,6,1,8,0.01
2013-10-19,76,61,52,63,56,47,98,84,43,30.01,29.94,9,1,11,0.01
2013-10-20,67,60,55,60,57,53,99,91,76,29.97,29.88,8,1,9,0.01
2013-10-21,67,60,53,59,56,52,98,87,73,29.97,29.90,7,1,9,0.00
2013-10-22,66,58,54,58,56,52,98,90,74,30.00,29.89,8,1,11,0.00
2013-10-23,66,60,58,58,56,54,95,87,75,29.97,29.89,8,1,9,0.00
2013-10-24,67,60,54,57,55,52,94,84,69,30.04,29.94,11,1,13,0.00
2013-10-25,66,59,53,59,56,49,97,89,75,30.12,30.00,40,1,40,0.01
2013-10-26,68,58,49,60,56,49,100,92,76,30.08,29.95,8,1,9,0.01
2013-10-27,69,60,51,63,56,49,100,89,61,29.96,29.77,15,1,16,0.02
2013-10-28,65,58,52,54,50,46,86,74,56,29.92,29.78,20,2,20,0.00
2013-10-29,65,57,46,57,51,46,99,83,67,29.99,29.91,13,2,13,0.22
2013-10-30,66,57,48,58,50,44,99,80,58,30.06,29.98,8,1,9,0.00
2013-10-31,72,58,49,58,50,40,99,78,34,30.08,29.99,6,1,8,0.01
2013-11-1,80,63,50,54,44,37,92,54,24,30.09,29.94,7,1,9,0.00
2013-11-2,77,61,52,61,50,37,97,70,30,29.97,29.86,7,1,10,0.00
2013-11-3,66,57,51,59,54,50,98,90,74,29.91,29.80,8,1,8,0.02
2013-11-4,66,57,50,58,48,25,99,76,24,29.95,29.78,10,1,14,0.00
2013-11-5,72,60,48,57,43,31,92,58,25,30.15,29.94,7,1,9,0.00
2013-11-6,78,60,48,50,35,22,62,41,12,30.19,30.10,7,1,9,0.00
2013-11-7,79,62,52,58,41,27,91,51,16,30.11,29.98,7,1,9,0.00
2013-11-8,72,60,50,60,54,40,99,82,51,30.01,29.91,6,0,6,0.01
2013-11-9,68,58,52,59,55,50,99,90,70,30.05,29.96,6,1,8,0.01
2013-11-10,68,56,49,59,53,49,99,90,64,30.09,30.02,10,1,13,0.01
2013-11-11,69,57,47,60,54,46,99,88,50,30.11,30.03,7,1,9,0.02
2013-11-12,72,61,54,61,55,50,96,81,59,30.15,30.05,6,0,7,0.00
2013-11-13,82,68,53,62,50,37,89,58,20,30.06,29.89,16,1,20,0.00
2013-11-14,78,64,56,60,54,39,95,72,39,29.92,29.72,8,1,9,0.00
2013-11-15,68,59,51,57,52,48,98,80,56,29.74,29.65,12,1,13,0.01
2013-11-16,66,57,50,58,53,48,98,86,71,29.92,29.72,8,1,10,0.01
2013-11-17,66,56,49,57,52,48,96,86,69,30.08,29.92,7,1,7,0.00
2013-11-18,65,54,49,56,52,48,99,92,70,30.15,30.06,7,1,9,0.01
2013-11-19,65,58,50,56,52,48,96,80,64,30.07,29.92,11,1,13,0.00
2013-11-20,66,60,55,58,56,53,98,88,75,29.96,29.84,5,1,7,0.49
2013-11-21,67,60,54,58,56,52,98,87,70,29.87,29.79,11,2,12,0.00
2013-11-22,66,57,47,56,50,45,99,79,49,29.95,29.84,8,1,9,0.01
2013-11-23,65,55,47,51,48,44,95,77,58,30.08,29.93,6,1,9,0.00
2013-11-24,66,56,49,54,49,44,93,77,48,30.20,30.07,6,1,7,0.00
2013-11-25,68,57,46,56,50,43,95,79,44,30.24,30.15,9,1,10,0.00
2013-11-26,72,59,50,54,48,41,91,68,35,30.17,30.01,6,0,6,0.01
2013-11-27,71,59,50,55,49,41,96,71,40,30.02,29.85,8,1,11,0.00
2013-11-28,64,59,54,57,54,45,96,84,53,30.02,29.86,7,1,11,0.00
2013-11-29,65,58,53,58,54,50,97,86,68,30.17,30.02,7,0,10,0.39
2013-11-30,71,59,49,56,50,43,96,73,46,30.18,30.08,5,0,7,0.01
2013-12-1,76,59,50,54,45,38,92,63,27,30.22,30.10,6,0,7,0.00
2013-12-2,74,59,50,55,45,36,96,64,31,30.11,29.88,6,1,7,0.00
2013-12-3,64,57,49,56,49,35,97,78,54,29.88,29.72,19,2,22,0.01
2013-12-4,64,51,41,35,28,19,58,42,19,29.96,29.80,16,3,16,0.00
2013-12-5,60,48,38,38,25,16,60,41,21,30.09,29.93,13,2,15,0.00
2013-12-6,59,48,38,41,33,18,78,55,43,30.17,30.08,14,2,15,0.00
2013-12-7,59,50,44,51,37,26,98,64,39,30.12,29.99,19,3,19,0.26
2013-12-8,57,45,33,35,29,24,81,56,29,30.21,30.09,16,1,16,0.00
2013-12-9,59,45,35,38,33,29,82,63,37,30.30,30.17,6,1,8,0.00
2013-12-10,60,46,38,45,38,31,95,76,47,30.28,30.11,6,0,8,0.00
2013-12-11,67,50,39,43,34,26,93,57,26,30.17,30.10,7,0,8,0.00
2013-12-12,67,52,42,53,37,26,97,61,25,30.21,30.12,8,1,9,0.00
2013-12-13,60,52,44,51,47,42,97,84,61,30.22,30.12,6,1,7,0.01
2013-12-14,72,54,42,50,38,26,97,60,19,30.29,30.19,5,0,6,0.01
2013-12-15,76,57,44,48,33,26,66,42,17,30.26,30.09,4,0,6,0.00
2013-12-16,81,64,52,36,32,25,46,32,15,30.12,30.03,8,0,8,0.00
2013-12-17,79,63,52,55,40,30,86,46,22,30.10,29.95,10,1,11,0.00
2013-12-18,64,57,52,57,53,46,94,86,57,29.98,29.81,8,1,9,0.00
2013-12-19,60,53,46,52,44,37,91,72,52,29.83,29.66,18,2,18,0.00
2013-12-20,64,53,43,48,38,32,75,58,37,29.92,29.78,8,1,10,0.00
2013-12-21,61,52,44,52,46,36,96,81,63,30.07,29.90,6,0,8,0.00
2013-12-22,63,52,45,55,49,44,99,91,74,30.26,30.07,8,1,9,0.01
2013-12-23,71,55,45,56,46,35,99,76,34,30.32,30.20,9,1,10,0.02
2013-12-24,78,58,45,55,44,36,96,64,24,30.20,30.08,5,0,5,0.00
2013-12-25,78,60,50,47,36,30,63,43,19,30.19,30.11,6,0,7,0.00
2013-12-26,76,60,49,39,31,21,57,36,15,30.17,30.07,7,1,7,0.00
2013-12-27,78,60,48,51,30,18,79,36,13,30.14,30.01,6,1,8,0.00
2013-12-28,69,58,48,57,46,32,97,69,33,30.01,29.90,6,1,7,0.01
2013-12-29,75,56,43,54,38,25,96,58,18,30.14,29.99,6,0,6,0.01
2013-12-30,70,55,46,55,35,25,90,50,21,30.24,30.13,5,0,7,0.00
2013-12-31,66,54,44,55,48,33,94,82,57,30.19,30.06,6,0,7,0.00
2014-1-1,67,53,44,58,49,43,99,88,71,30.13,30.03,8,1,9,0.01
2014-1-2,75,58,47,55,41,32,93,57,25,30.10,29.98,6,0,7,0.00